Simultaneous Nadir Overpasses (SNOs) Predictions

Prediction of SNOs between NOAA-19 and METOP-C Satellite Orbit:

Table of predicted SNOs for the next 14.0 days since TLE Epoch: 1/11/2019
Index Date (NOAA-19) Time (NOAA-19) Lat,Lon (NOAA-19) SZA (NOAA-19 ) Date (METOP-C) Time (METOP-C) Lat,Lon (METOP-C) SZA (METOP-C ) Distance(km) Time Diff (sec)
1 01/18/2019 02:25:01 78.90, 157.27 99.65 01/18/2019 02:26:11 78.93, 157.22 99.69 3.41 70
2 01/18/2019 03:16:02 -78.93, -35.71 80.34 01/18/2019 03:16:54 -78.90, -35.67 80.36 3.60 52
3 01/18/2019 04:07:02 78.90, 131.75 99.64 01/18/2019 04:07:33 78.92, 131.78 99.66 1.55 31
4 01/18/2019 04:58:02 -78.90, -60.96 80.38 01/18/2019 04:58:15 -78.92, -60.86 80.35 3.26 13
5 01/18/2019 05:49:03 78.91, 106.24 99.63 01/18/2019 05:48:55 78.90, 106.34 99.63 2.20 8
6 01/18/2019 06:40:03 -78.90, -86.47 80.39 01/18/2019 06:39:38 -78.87, -86.54 80.42 3.58 25
7 01/18/2019 07:31:03 78.87, 80.98 99.59 01/18/2019 07:30:17 78.89, 80.91 99.59 2.31 46
8 01/18/2019 08:22:03 -78.87,-111.72 80.43 01/18/2019 08:20:59 -78.89,-111.73 80.41 2.86 64




NCC Satellite Simultaneous Nadir Overpasses (SNOs) Prediction Service
